Home > Weather > Springfield > Past weeks

Flag for USA Past Weather in Springfield, Missouri, USA — Yesterday and Last 2 Weeks

Now
75 °F

Clear.


Feels Like: 75 °F
Forecast: 74 / 91 °F
Wind: 14 mph from South

Location: Springfield Regional Airport

Current Time: Aug 24, 2016 at 3:43:06 AM

Latest Report: Aug 24, 2016 at 2:52 AM


Visibility: 10 mi

Pressure: 30.01 "Hg

Humidity: 82%

Dew Point: 69 °F

Location of SpringfieldLocation

Past Weather in Springfield — Graph

°F

Springfield Temperature Yesterday

Maximum temperature yesterday: 85 °F (at 3:52 PM)
Minimum temperature yesterday: 69 °F (at 12:52 AM)
Average temperature yesterday: 76 °F

High & Low Weather Summary for the Past Weeks

 TemperatureHumidityPressure
High93 °F (Aug 11, 2:52 PM)97% (Aug 16, 1:56 AM)30.16 "Hg (Aug 16, 1:56 AM)
Low56 °F (Aug 21, 5:52 AM)37% (Aug 21, 2:52 PM)29.77 "Hg (Aug 20, 3:52 AM)
Average76 °F74%29.98 "Hg
* Reported Aug 9 1:52 AM — Aug 24 1:52 AM, Springfield, Weather by CustomWeather, © 2016

Note: Actual official high and low records may vary slightly from our data, if they occured in-between our weather recording intervals... More about our weather records

Advertising

Springfield Weather History for the Previous 24 Hours

Scroll right to see more
 ConditionsComfort  
Time TempWeatherWind HumidityBarometerVisibility
1:52 AM
Wed, Aug 24
76 °FClear.14 mph80%30.01 "Hg10 mi
12:52 AM76 °FClear.13 mph80%30.03 "Hg10 mi
11:52 PM
Tue, Aug 23
77 °FClear.13 mph77%30.03 "Hg10 mi
10:52 PM77 °FClear.13 mph79%30.03 "Hg10 mi
9:52 PM78 °FClear.14 mph76%30.03 "Hg10 mi
8:52 PM79 °FPassing clouds.13 mph74%30.01 "Hg10 mi
7:52 PM80 °FSunny.13 mph71%30.01 "Hg10 mi
6:52 PM82 °FSunny.13 mph65%30.00 "Hg10 mi
5:52 PM84 °FSunny.13 mph63%30.03 "Hg10 mi
4:52 PM84 °FPassing clouds.16 mph63%30.04 "Hg10 mi
3:52 PM85 °FSunny.12 mph61%30.05 "Hg10 mi
2:52 PM84 °FPassing clouds.10 mph67%30.07 "Hg10 mi
1:52 PM83 °FScattered clouds.15 mph68%30.08 "Hg10 mi
12:52 PM81 °FPartly sunny.12 mph74%30.10 "Hg10 mi
11:52 AM77 °FOvercast.13 mph82%30.11 "Hg10 mi
10:52 AM76 °FBroken clouds.13 mph85%30.12 "Hg10 mi
10:03 AM72 °FThundershowers. Cloudy.10 mph91%30.16 "Hg8 mi
9:56 AM72 °FThunderstorms. Fog.14 mph91%30.16 "Hg3 mi
9:02 AM71 °FStrong thunderstorms. Fog.10 mph93%30.15 "Hg2 mi
7:52 AM72 °FCloudy.10 mph84%30.10 "Hg10 mi
6:52 AM71 °FOvercast.12 mph84%30.10 "Hg10 mi
5:52 AM71 °FOvercast.13 mph81%30.08 "Hg10 mi
4:52 AM71 °FPassing clouds.10 mph81%30.06 "Hg10 mi
3:52 AM71 °FOvercast.9 mph78%30.07 "Hg10 mi
Weather by CustomWeather, © 2016

See weather overviewHow to use our weather pages